Home   Weather   Crawley   Past weeks

Flag for United Kingdom Past Weather in Crawley, England, United Kingdom — Yesterday and Last 2 Weeks

Now
61 °F

Broken clouds.


Feels Like: 61 °F
Forecast: 49 / 62 °F
Wind: 17 mph from West

Location: London / Gatwick Airport

Current Time: Sep 29, 2016 at 11:21:57 AM

Latest Report: Sep 29, 2016 at 10:50 AM


Visibility: N/A

Pressure: 29.98 "Hg

Humidity: 94%

Dew Point: 59 °F

Location of CrawleyLocation

Past Weather in Crawley — Graph

°F

Crawley Temperature Yesterday

Maximum temperature yesterday: 70 °F (at 12:20 PM)
Minimum temperature yesterday: 52 °F (at 5:50 AM)
Average temperature yesterday: 61 °F

High & Low Weather Summary for the Past Weeks

 TemperatureHumidityPressure
High81 °F (Sep 15, 12:50 PM)100% (Sep 15, 3:50 AM)30.30 "Hg (Sep 15, 3:50 AM)
Low45 °F (Sep 23, 6:50 AM)46% (Sep 23, 2:50 PM)29.80 "Hg (Sep 15, 8:50 AM)
Average60 °F83%30.08 "Hg
* Reported Sep 14 10:20 AM — Sep 29 10:20 AM, Crawley, Weather by CustomWeather, © 2016

Note: Actual official high and low records may vary slightly from our data, if they occured in-between our weather recording intervals... More about our weather records

Advertising

Crawley Weather History for the Previous 24 Hours

Scroll right to see more
 ConditionsComfort  
Time TempWeatherWind HumidityBarometerVisibility
10:20 AM
Thu, Sep 29
63 °FLight rain. Partly sunny.10 mph94%29.98 "Hg2 mi
9:50 AM61 °FDrizzle. Mostly cloudy.12 mph100%29.98 "Hg2 mi
9:20 AM61 °FLight rain. Partly sunny.12 mph100%29.98 "Hg3 mi
8:50 AM63 °FPartly sunny.13 mph88%29.98 "HgN/A
8:20 AM61 °FLight rain. Partly sunny.13 mph94%29.98 "HgN/A
7:50 AM61 °FLight rain. Partly sunny.15 mph94%29.98 "Hg4 mi
7:20 AM61 °FLight rain. Partly sunny.15 mph94%30.01 "Hg4 mi
6:50 AM61 °FLight rain. Low clouds.13 mph94%30.01 "Hg6 mi
6:20 AM63 °FPassing clouds.12 mph94%30.01 "HgN/A
5:50 AM63 °FDrizzle. Mostly cloudy.13 mph94%30.01 "Hg5 mi
5:20 AM61 °FPassing clouds.12 mph100%30.01 "Hg3 mi
4:50 AM61 °FDrizzle. Low clouds.13 mph100%30.04 "Hg2 mi
4:20 AM63 °FDrizzle. Fog.12 mph94%30.04 "Hg2 mi
3:50 AM63 °FLow clouds.13 mph94%30.04 "Hg2 mi
3:20 AM63 °FLow clouds.12 mph94%30.07 "Hg5 mi
2:50 AM63 °FLow clouds.9 mph94%30.07 "HgN/A
2:20 AM63 °FPassing clouds.9 mph94%30.09 "HgN/A
1:50 AM63 °FFog.9 mph94%30.09 "Hg2 mi
1:20 AM63 °FLow clouds.10 mph94%30.12 "Hg4 mi
12:50 AM63 °FFog.9 mph94%30.12 "Hg2 mi
12:20 AM63 °FFog.12 mph94%30.12 "Hg2 mi
11:50 PM
Wed, Sep 28
61 °FFog.9 mph100%30.15 "Hg3 mi
11:20 PM61 °FFog.9 mph100%30.15 "Hg3 mi
10:50 PM61 °FFog.12 mph100%30.18 "Hg3 mi
10:20 PM61 °FDrizzle. Fog.12 mph100%30.18 "Hg2 mi
9:50 PM61 °FFog.14 mph94%30.18 "Hg2 mi
9:20 PM61 °FLow clouds.12 mph94%30.18 "Hg3 mi
8:50 PM61 °FLow clouds.13 mph94%30.18 "Hg4 mi
8:20 PM61 °FPassing clouds.10 mph94%30.18 "Hg4 mi
7:50 PM63 °FLow clouds.10 mph88%30.21 "Hg4 mi
7:20 PM63 °FPassing clouds.9 mph88%30.21 "Hg5 mi
6:50 PM63 °FMostly cloudy.9 mph88%30.24 "Hg6 mi
6:20 PM63 °FPartly sunny.10 mph88%30.24 "Hg5 mi
5:50 PM64 °FScattered clouds.8 mph83%30.24 "Hg6 mi
5:20 PM66 °FScattered clouds.12 mph78%30.24 "HgN/A
4:50 PM68 °FScattered clouds.13 mph73%30.24 "HgN/A
4:20 PM68 °FPartly sunny.12 mph73%30.24 "HgN/A
3:50 PM68 °FPartly sunny.10 mph73%30.24 "HgN/A
3:20 PM68 °FBroken clouds.14 mph73%30.24 "HgN/A
2:50 PM70 °FPartly sunny.13 mph69%30.24 "HgN/A
2:20 PM70 °FPartly sunny.9 mph69%30.24 "HgN/A
1:50 PM68 °FPartly sunny.10 mph73%30.24 "HgN/A
1:20 PM70 °FScattered clouds.10 mph69%30.27 "HgN/A
12:50 PM70 °FScattered clouds.10 mph64%30.27 "HgN/A
12:20 PM70 °FPassing clouds.10 mph60%30.27 "HgN/A
11:50 AM68 °FPassing clouds.10 mph60%30.27 "HgN/A
11:20 AM64 °FPassing clouds.8 mph68%30.27 "HgN/A
Weather by CustomWeather, © 2016

See weather overviewHow to use our weather pages